Temperature
25 24 24 25 30 30 28 28 28 27 26 25 25 25 25 24 24 22 20 19 18 18 18 18 18 18 18 18 18 18 18 18 18 18 18 18 18 18 18 18 18 18 18 18 18 18 18 18 18
24 24 25 29 31 29 27 28 27 26 25 25 25 25 25 23 22 20 19 18 18 18 18 17 18 18 18 18 18 18 18 18 18 18 18 18 18 18 18 18 18 18 18 18 18 18 18 18 18
25 25 28 31 30 29 27 28 27 26 25 25 25 24 24 22 21 20 19 18 18 18 18 18 18 18 18 18 18 18 18 18 18 18 18 18 18 18 18 18 18 18 18 18 18 18 18 18 18
25 27 30 31 29 29 28 28 27 27 26 25 25 24 22 20 21 20 19 19 19 18 18 17 18 18 18 18 18 18 18 18 18 18 18 18 18 18 18 18 18 18 18 18 18 18 18 18 18
27 31 32 30 29 29 29 28 27 27 26 26 25 24 22 20 20 19 19 19 19 19 18 17 18 18 18 18 18 18 18 18 18 18 18 18 18 18 18 18 18 18 18 18 18 18 18 18 18
30 33 31 30 29 29 29 27 27 27 26 25 25 24 21 20 20 19 19 19 19 19 18 17 18 18 18 18 18 18 18 18 18 18 18 18 18 18 18 18 18 18 18 18 18 18 18 18 18
32 33 31 30 29 29 29 28 28 27 26 26 25 25 22 20 20 19 19 19 19 19 19 18 18 18 18 18 18 18 18 18 18 18 18 18 18 18 18 18 18 18 18 18 18 18 18 18 18
31 33 32 31 30 29 28 28 27 27 26 25 25 25 23 20 20 19 19 19 19 19 19 18 18 18 18 18 18 18 18 18 18 18 18 18 18 18 18 18 18 18 18 18 18 18 18 18 18
31 33 31 31 31 30 29 28 27 26 26 25 25 25 23 20 20 20 20 19 19 19 19 19 19 18 18 18 18 18 18 18 18 18 18 18 17 17 17 17 18 18 18 18 18 18 18 18 18
33 32 31 32 32 31 29 29 27 27 26 25 24 22 21 20 20 21 21 20 19 19 19 18 18 18 18 18 18 18 18 17 17 17 17 17 17 17 17 18 18 18 18 18 18 18 18 18 17
33 32 32 31 31 30 29 29 28 28 28 26 24 22 21 21 21 21 21 20 20 19 19 19 18 18 18 18 18 18 18 17 17 17 17 17 17 17 17 17 17 18 18 17 17 17 17 17 17
32 32 31 31 30 30 30 29 28 28 28 26 24 23 22 22 22 22 21 20 20 19 19 19 18 18 18 18 18 18 18 18 18 17 17 17 17 17 17 17 17 17 17 17 17 17 17 17 17
32 32 31 30 30 30 29 29 28 27 26 25 24 23 22 22 22 22 21 20 20 19 19 19 18 18 18 18 18 18 18 18 18 18 18 18 18 18 17 17 17 17 17 17 17 17 17 17 17
32 31 31 30 30 29 29 29 28 27 25 25 24 23 23 23 22 22 21 20 20 19 19 19 18 18 18 18 18 18 18 18 18 18 18 18 18 18 17 18 18 18 18 17 17 17 17 17 17
31 32 31 31 30 30 30 29 29 26 26 25 24 24 23 23 22 22 21 20 20 20 19 19 19 18 18 18 18 18 18 18 18 18 18 18 18 18 18 18 18 18 18 18 18 17 17 18 18
32 32 31 31 31 30 30 30 29 26 26 25 25 24 23 22 22 22 21 21 20 20 19 19 19 19 18 18 18 18 18 18 18 18 18 18 18 18 18 18 18 18 18 17 17 17 18 18 18
32 32 32 31 31 31 31 30 29 27 26 26 25 25 24 23 22 22 21 21 20 20 19 19 19 19 18 18 18 18 18 18 18 18 18 18 18 18 18 18 18 18 17 18 18 18 18 18 18
32 32 32 31 31 31 31 30 29 27 27 27 26 25 24 24 23 22 22 21 20 20 20 19 19 19 19 18 18 18 18 18 18 18 18 18 18 18 18 18 18 18 17 18 17 17 17 18 18
33 32 32 32 31 31 31 30 30 28 27 27 27 26 25 24 24 23 22 21 21 20 20 20 19 19 19 18 18 18 18 18 18 18 18 18 18 18 18 18 18 17 17 18 17 17 17 17 17
32 32 32 31 30 31 31 30 30 29 28 28 27 26 26 25 24 23 22 22 21 21 21 20 20 19 19 19 19 18 18 18 18 18 18 18 18 18 18 18 17 17 18 17 17 17 17 17 17
32 32 32 31 30 31 31 31 30 29 28 27 27 27 26 25 25 23 23 22 22 21 21 21 20 19 19 19 19 18 18 18 18 18 18 18 18 18 18 18 18 18 17 17 17 17 17 17 17
32 32 32 31 31 31 31 31 31 30 29 28 27 27 27 26 25 24 23 23 22 22 21 21 20 20 20 19 19 19 19 19 18 18 18 18 18 18 18 18 18 18 17 17 17 17 17 17 17
32 31 31 31 31 31 31 31 32 30 30 30 29 28 27 27 26 25 24 23 23 22 22 21 21 20 20 19 19 19 18 18 18 18 18 18 18 18 18 18 18 18 18 18 17 17 17 17 17
31 31 31 31 32 30 31 31 31 32 31 31 30 28 27 27 26 25 24 23 23 22 22 21 21 21 20 20 19 19 19 18 18 18 18 18 18 18 18 18 18 18 17 17 17 17 17 17 17
31 31 30 30 30 30 31 31 31 32 31 31 30 29 28 27 26 25 24 24 23 22 22 22 21 21 21 20 20 19 19 19 18 18 18 18 18 18 18 18 18 18 18 17 17 17 17 17 17
31 31 30 29 30 31 30 31 32 32 30 30 29 29 28 27 26 25 25 24 23 23 22 22 22 21 21 20 20 20 19 19 18 18 18 18 17 18 18 17 17 17 17 17 17 17 17 17 17
31 31 33 31 31 30 31 31 32 31 30 30 29 28 28 27 26 25 25 24 23 23 22 22 22 21 21 21 20 20 20 19 19 19 18 18 18 17 17 17 17 17 17 17 17 17 17 16 16
31 32 31 31 29 29 30 31 32 31 30 30 29 28 28 27 26 25 25 24 23 23 22 22 22 22 21 21 20 20 20 20 19 18 18 18 18 18 17 17 17 17 17 17 17 16 16 16 16
29 30 30 31 31 30 30 31 32 31 31 30 30 28 27 27 26 25 25 24 23 23 22 22 22 21 21 21 20 20 20 19 19 19 18 18 18 18 17 17 17 17 16 16 16 16 16 16 16
31 31 30 29 29 30 30 31 32 31 31 30 29 28 27 26 26 25 25 24 23 23 22 22 22 21 21 21 21 20 20 19 19 19 18 18 18 17 17 17 17 16 16 16 16 16 16 16 15
Wind_Speed
10 9 6 4 2 10 14 11 9 8 7 9 9 8 10 11 9 9 7 7 8 8 10 11 10 11 12 13 14 14 15 15 15 15 15 15 15 15 15 15 15 16 16 17 17 17 17 17 17
7 5 4 0 7 12 13 11 12 11 9 8 9 10 12 11 10 9 8 8 8 9 10 11 10 11 11 12 14 14 14 15 15 15 15 15 15 15 14 15 15 16 17 17 17 17 17 16 16
6 5 1 6 13 14 13 11 12 11 8 6 7 9 8 8 8 7 9 9 9 9 10 11 9 11 12 12 12 13 13 14 14 14 14 14 14 14 14 14 15 16 16 17 17 16 16 16 15
4 3 3 10 16 14 12 10 10 10 9 8 9 10 9 8 6 9 11 9 9 9 10 12 9 10 11 12 12 12 12 13 13 14 13 14 14 13 14 14 15 16 16 16 16 15 15 15 14
3 2 9 14 15 13 11 9 7 8 8 9 10 13 11 9 10 12 10 9 9 9 9 12 9 10 10 11 11 11 12 12 12 12 12 12 13 13 14 14 15 15 15 14 14 14 14 13 13
1 2 9 13 14 11 10 8 8 11 11 11 11 13 9 8 10 10 9 8 8 9 9 11 10 9 9 10 10 10 10 11 11 12 12 12 12 12 13 13 13 14 13 13 13 13 12 12 11
3 7 11 12 11 10 8 7 8 10 10 9 8 11 9 10 10 10 9 8 7 8 8 8 9 9 9 8 8 9 9 10 10 11 11 12 11 11 12 12 12 12 12 11 11 11 10 10 9
2 5 10 11 11 11 9 8 9 9 10 8 5 8 11 12 11 10 9 8 7 7 7 6 7 7 7 9 8 7 8 8 9 9 9 10 10 10 10 11 11 10 10 10 9 9 9 8 8
1 5 10 10 10 10 10 10 8 8 10 7 7 10 14 15 12 11 9 8 7 6 5 5 6 6 5 6 8 7 7 6 6 7 7 5 6 9 8 11 10 8 8 8 7 7 7 6 8
2 8 11 8 8 10 9 9 9 8 10 10 11 13 16 14 12 10 9 8 8 6 6 5 5 5 4 4 5 4 5 6 4 5 5 4 5 5 7 9 7 6 6 6 5 5 6 6 6
6 9 9 8 8 9 9 9 7 8 9 10 14 16 15 14 11 9 8 7 7 6 5 6 5 4 3 3 3 3 3 4 4 5 4 3 3 4 4 5 6 6 6 5 6 6 3 3 2
7 8 7 8 8 8 8 8 7 6 9 11 14 16 15 13 11 9 8 7 7 5 5 4 5 4 2 2 2 2 2 2 3 3 2 3 2 2 3 2 3 2 3 2 2 2 1 1 1
6 7 8 8 8 8 9 8 8 9 10 14 15 14 13 12 10 8 7 7 6 6 5 5 3 3 3 2 0 2 2 2 3 2 2 1 1 1 2 1 1 1 1 2 2 1 1 2 2
7 8 9 8 9 8 9 9 7 9 12 14 14 13 12 10 10 9 8 7 7 6 5 5 4 3 3 2 1 0 1 1 1 1 2 1 1 1 1 1 1 1 0 0 1 2 2 2 1
8 9 9 8 7 7 8 8 7 11 13 14 13 12 11 10 9 8 8 7 7 6 5 5 5 4 3 2 2 1 0 1 1 2 1 1 1 1 1 1 1 1 1 1 2 2 2 2 2
7 7 6 6 5 6 6 7 10 12 13 13 12 11 10 10 9 8 8 7 6 6 6 5 4 4 4 2 1 0 1 1 1 1 1 1 1 1 1 1 0 1 2 2 1 2 2 2 2
7 5 4 7 6 5 5 5 11 12 13 12 12 12 11 10 10 9 9 8 7 6 6 6 5 4 4 3 2 1 0 0 1 1 1 1 1 1 1 0 0 2 2 2 2 1 2 2 2
6 4 4 5 6 7 6 5 10 13 13 12 12 12 11 11 11 10 10 9 8 7 7 6 6 5 4 3 3 1 1 1 0 1 1 1 0 0 1 1 1 2 2 2 1 2 2 2 2
4 5 4 4 5 7 6 6 9 12 13 13 12 13 12 12 11 10 10 10 9 8 8 8 7 6 5 3 3 2 1 1 0 1 2 1 1 1 1 1 1 2 2 2 2 2 2 2 2
7 7 5 5 5 5 5 6 8 12 14 13 13 13 13 12 11 11 10 10 10 10 9 9 9 8 6 4 3 2 1 1 1 1 1 1 1 1 0 1 2 1 1 1 1 2 2 2 2
9 8 5 4 5 6 5 7 9 10 12 13 13 13 13 12 13 12 12 12 11 10 10 9 9 8 7 5 4 3 3 2 2 1 1 1 1 2 2 1 2 2 2 1 2 2 3 3 2
9 6 5 6 7 4 6 4 6 10 12 14 15 14 14 14 13 13 13 12 12 11 10 10 9 8 7 7 5 5 3 2 1 1 1 0 1 1 1 2 2 3 2 2 3 1 3 3 3
5 5 6 7 8 6 6 7 3 8 10 13 14 15 15 14 14 13 13 13 12 11 10 10 9 8 8 7 6 5 4 2 2 1 1 1 1 1 2 2 2 3 3 3 3 3 3 3 3
8 8 6 7 9 10 6 7 3 4 7 8 11 13 14 14 13 13 12 12 11 11 10 10 10 9 8 8 7 6 4 3 2 1 1 1 0 0 1 2 2 2 3 3 3 3 3 3 3
11 10 8 9 9 8 4 7 4 2 3 5 8 11 13 13 13 13 13 13 12 12 11 10 10 10 9 9 7 6 5 4 3 2 1 1 1 1 1 2 2 3 3 3 3 2 3 3 3
15 15 11 9 9 6 6 7 3 2 3 4 6 9 11 13 13 14 14 13 12 12 12 11 11 10 10 9 7 6 6 4 3 2 1 0 1 2 2 2 2 3 3 3 2 2 2 2 2
14 15 13 11 9 9 7 6 5 4 5 6 7 8 10 12 13 14 14 13 13 12 12 12 12 11 10 9 8 7 6 4 3 2 2 1 0 0 1 2 2 2 3 3 3 2 3 2 2
10 12 10 12 10 11 9 9 6 6 7 7 8 9 10 11 12 13 13 12 12 11 12 12 11 11 10 9 8 6 6 5 4 2 1 0 0 1 1 2 2 2 3 3 3 2 3 3 3
10 12 11 11 11 11 10 6 2 4 5 7 8 8 9 11 12 12 12 12 11 11 12 12 11 10 10 9 8 7 6 6 5 3 2 2 1 1 1 2 2 2 3 3 4 4 4 4 4
14 14 14 12 11 11 11 5 5 2 4 6 7 8 8 9 10 11 12 12 12 12 12 12 11 11 10 9 8 8 7 6 5 5 4 3 3 2 2 2 2 3 3 3 3 4 4 4 4
Wind_Direction
178 183 209 232 120 74 65 63 66 79 72 67 65 62 65 51 47 82 98 97 99 96 94 90 73 70 73 76 80 82 85 86 87 86 88 90 92 95 96 97 98 100 102 102 100 100 101 101 101
169 187 221 191 71 76 69 66 71 73 91 96 80 75 75 67 63 95 110 106 106 97 95 84 78 73 77 77 78 81 84 86 88 88 86 86 90 93 97 97 98 101 101 101 100 99 101 101 102
180 225 312 69 65 67 76 77 84 88 89 89 86 69 64 72 83 100 110 118 109 97 95 89 80 78 80 78 79 81 85 85 88 89 87 86 87 89 93 97 99 101 101 101 101 101 102 103 103
213 196 93 76 74 69 80 91 100 100 88 84 95 86 76 62 84 107 119 120 112 107 102 94 82 80 78 79 80 82 86 85 87 88 89 89 89 90 92 94 98 100 101 102 103 104 104 106 107
236 94 90 80 76 79 83 90 91 88 89 92 96 98 87 77 100 114 121 122 114 107 102 101 88 84 81 81 79 80 83 85 86 86 90 92 92 93 95 96 99 101 102 104 105 106 106 107 107
197 93 82 81 83 88 89 92 93 94 100 102 104 102 91 107 116 120 121 118 112 109 106 107 107 90 82 80 82 81 82 83 86 86 90 96 93 94 96 98 101 103 104 105 106 107 109 111 109
53 74 81 86 91 92 92 95 93 103 105 100 108 105 115 123 124 125 120 117 112 109 108 109 115 114 109 91 83 84 84 85 87 88 92 95 96 97 99 101 102 105 109 110 109 109 110 114 115
11 91 88 85 87 91 107 101 98 104 101 109 112 115 130 136 137 131 127 124 117 111 106 109 104 103 115 113 101 90 87 87 90 90 95 103 110 112 113 116 107 106 109 111 111 112 115 119 123
248 89 82 78 82 101 121 117 108 107 115 103 89 100 122 136 143 142 138 131 122 115 113 110 109 106 103 103 109 119 115 108 118 112 115 136 120 114 122 100 106 110 113 114 115 120 125 137 144
81 80 79 73 80 110 125 118 123 130 123 117 112 113 128 142 149 149 143 139 133 131 128 117 106 104 101 99 108 107 108 105 98 89 103 107 94 98 103 111 117 118 123 131 135 150 173 197 161
78 82 90 90 92 113 122 119 127 130 127 134 138 141 147 150 154 151 143 138 132 137 134 125 117 115 111 109 103 85 90 101 106 98 102 104 122 126 120 130 137 145 161 159 155 186 185 168 137
97 88 93 100 109 118 116 117 118 103 102 130 141 146 152 157 157 153 148 147 146 149 145 128 124 118 94 74 91 105 100 101 86 98 110 123 121 112 110 117 116 141 144 137 174 166 164 171 177
108 106 103 109 116 114 118 112 106 105 115 132 140 149 156 159 156 154 150 152 156 165 162 148 142 132 130 116 60 91 77 71 91 88 94 93 134 119 112 98 92 144 144 168 176 189 188 213 207
113 118 119 121 122 129 125 119 121 119 134 141 150 157 161 161 161 160 165 169 173 175 169 160 166 158 156 151 148 71 82 76 55 78 77 69 122 122 149 151 126 161 187 313 213 206 210 216 212
139 134 129 129 135 142 144 129 124 137 147 152 158 163 165 169 174 178 177 180 180 180 176 175 179 171 173 176 187 162 102 81 54 65 71 86 121 124 170 153 178 164 172 193 223 231 229 218 207
170 171 150 142 155 165 205 124 138 152 160 162 166 169 177 183 189 190 188 190 189 182 178 188 186 168 177 183 216 215 42 53 39 41 94 115 130 168 226 190 200 215 230 221 214 233 229 234 237
196 196 156 151 173 181 214 133 148 166 172 172 177 181 186 189 197 198 198 197 194 189 187 190 192 189 185 178 188 198 158 37 2 11 38 102 161 190 230 224 349 246 244 251 262 230 250 240 244
194 195 177 170 172 196 206 159 158 177 184 183 185 189 194 198 200 198 200 200 197 193 192 193 191 194 195 188 184 205 195 175 116 37 29 19 167 120 284 210 244 264 257 260 275 270 262 256 250
220 223 195 156 166 202 209 196 180 183 194 194 194 195 201 203 199 197 200 202 199 196 194 194 198 193 200 204 215 204 192 189 153 114 64 27 15 28 293 303 231 268 264 275 261 257 234 238 238
225 222 194 155 171 215 214 216 193 192 201 203 201 201 204 203 200 199 201 201 201 197 195 194 196 198 205 200 211 214 217 198 150 55 79 41 29 356 311 292 275 286 276 256 270 263 274 254 240
220 227 207 176 173 204 234 214 200 199 207 209 213 212 211 207 204 201 201 201 198 196 196 196 196 197 203 201 201 186 178 198 169 158 138 49 14 9 358 353 322 322 305 323 295 275 271 271 259
215 211 202 186 205 206 229 258 184 194 204 211 214 214 213 209 207 204 201 199 198 195 192 193 192 194 195 198 204 207 209 200 167 183 112 95 24 0 350 348 343 329 324 331 293 285 270 265 261
203 167 194 208 230 246 221 264 179 179 208 211 211 212 212 208 204 203 201 199 199 194 189 186 188 190 191 196 194 203 207 193 178 173 125 300 45 3 346 342 341 330 326 335 324 316 290 272 270
152 156 176 216 235 243 235 254 248 186 209 202 201 206 206 203 200 200 197 194 195 192 187 182 181 185 186 188 190 196 195 197 194 199 198 218 127 349 348 331 333 325 329 325 314 305 294 298 291
193 198 209 217 224 236 194 243 261 160 194 206 196 197 199 199 195 194 193 191 190 189 185 181 178 181 183 183 185 187 191 194 201 222 205 278 313 340 6 343 335 334 334 325 319 311 313 304 293
209 217 225 234 236 223 190 236 236 142 183 198 195 188 191 193 192 193 192 191 189 186 182 180 179 180 180 180 182 185 192 200 196 207 255 258 335 3 2 347 347 348 342 338 336 324 328 331 311
209 222 236 245 249 252 229 230 233 185 186 183 180 179 183 186 188 191 190 189 188 184 182 181 178 178 178 177 177 181 187 190 184 187 211 228 299 341 18 1 356 360 3 353 339 9 354 356 347
233 220 223 235 238 243 238 235 228 189 186 175 178 180 180 182 183 185 185 186 184 182 179 178 178 178 176 176 180 176 177 179 182 183 147 132 27 13 10 8 13 13 12 11 5 33 30 28 35
198 209 220 231 241 245 244 229 181 194 187 180 178 176 177 181 181 181 181 180 176 176 175 176 176 176 175 175 173 173 171 171 170 167 161 151 119 88 50 37 41 41 34 30 34 40 41 43 46
216 214 211 221 226 239 256 237 125 166 178 181 179 172 172 174 175 177 175 174 174 175 176 175 176 177 176 171 169 168 165 164 163 154 146 138 124 109 90 76 63 56 50 44 48 45 44 43 43
Height
1492 1491 1492 1494 1488 1491 1501 1502 1500 1504 1507 1512 1512 1512 1513 1515 1517 1529 1533 1532 1533 1533 1532 1530 1529 1528 1527 1527 1526 1526 1526 1525 1525 1525 1525 1525 1526 1526 1527 1528 1529 1530 1531 1532 1533 1534 1535 1537 1538
1493 1493 1495 1491 1488 1502 1509 1503 1506 1509 1513 1514 1515 1516 1517 1522 1527 1531 1533 1534 1535 1535 1535 1533 1532 1531 1530 1529 1529 1529 1529 1529 1529 1529 1529 1529 1529 1530 1530 1532 1532 1533 1534 1535 1536 1537 1539 1540 1541
1494 1495 1495 1488 1494 1504 1509 1507 1510 1513 1515 1515 1517 1519 1522 1527 1531 1533 1535 1536 1537 1537 1537 1534 1534 1533 1533 1532 1532 1532 1532 1532 1532 1532 1532 1532 1533 1533 1533 1535 1536 1536 1537 1538 1539 1541 1542 1543 1544
1496 1497 1493 1492 1502 1504 1505 1508 1511 1513 1516 1517 1518 1522 1528 1532 1534 1536 1536 1538 1539 1539 1539 1537 1536 1536 1536 1535 1535 1534 1534 1535 1535 1535 1535 1536 1536 1537 1537 1538 1539 1540 1541 1542 1543 1544 1545 1546 1547
1497 1493 1491 1498 1503 1505 1507 1511 1512 1513 1516 1519 1520 1525 1531 1535 1536 1537 1538 1540 1541 1541 1542 1541 1539 1539 1539 1538 1538 1538 1537 1537 1538 1538 1538 1538 1539 1540 1540 1541 1542 1543 1544 1545 1546 1547 1548 1549 1550
1496 1489 1494 1505 1507 1507 1510 1513 1513 1516 1519 1522 1523 1527 1534 1538 1538 1539 1541 1542 1543 1543 1544 1542 1541 1541 1541 1541 1541 1540 1540 1540 1540 1541 1540 1541 1542 1543 1543 1544 1545 1546 1546 1548 1548 1550 1551 1552 1552
1495 1490 1497 1502 1507 1508 1512 1514 1514 1517 1521 1524 1525 1528 1535 1539 1540 1541 1542 1543 1544 1545 1545 1545 1546 1544 1544 1544 1543 1543 1543 1543 1543 1543 1543 1544 1545 1546 1546 1547 1548 1548 1549 1550 1551 1552 1553 1554 1554
1496 1491 1496 1499 1504 1509 1513 1515 1518 1519 1523 1527 1527 1528 1535 1540 1541 1542 1543 1545 1546 1546 1547 1547 1548 1547 1548 1547 1546 1546 1546 1546 1546 1546 1546 1547 1548 1549 1549 1550 1550 1551 1551 1552 1553 1554 1555 1555 1556
1497 1493 1500 1501 1503 1508 1513 1516 1521 1523 1525 1528 1529 1531 1535 1539 1542 1543 1545 1546 1547 1547 1548 1549 1550 1549 1550 1550 1549 1549 1549 1549 1549 1549 1549 1550 1552 1552 1552 1552 1552 1553 1553 1554 1555 1555 1556 1557 1558
1495 1496 1501 1502 1503 1507 1513 1516 1520 1522 1525 1529 1532 1535 1538 1540 1543 1545 1546 1547 1548 1549 1550 1550 1551 1551 1552 1552 1552 1552 1552 1552 1552 1552 1552 1553 1553 1554 1554 1554 1554 1554 1555 1556 1556 1557 1558 1559 1560
1497 1499 1502 1505 1507 1509 1513 1517 1519 1520 1523 1528 1532 1536 1539 1542 1544 1546 1547 1548 1549 1550 1551 1551 1552 1552 1553 1553 1554 1554 1554 1553 1554 1553 1553 1554 1554 1555 1556 1556 1556 1556 1556 1558 1558 1559 1560 1561 1561
1500 1503 1505 1507 1510 1511 1513 1517 1519 1521 1524 1529 1533 1537 1539 1542 1544 1546 1548 1549 1550 1551 1552 1553 1553 1553 1553 1554 1555 1555 1555 1555 1555 1555 1555 1555 1556 1556 1556 1557 1557 1557 1558 1558 1559 1559 1560 1560 1561
1502 1504 1507 1510 1512 1513 1516 1518 1521 1524 1528 1531 1535 1538 1540 1543 1545 1547 1548 1550 1551 1551 1553 1553 1553 1553 1553 1554 1555 1556 1556 1556 1556 1555 1555 1555 1556 1556 1557 1556 1557 1558 1558 1558 1558 1559 1559 1560 1560
1504 1506 1508 1510 1513 1515 1516 1520 1522 1527 1530 1533 1536 1539 1541 1543 1545 1547 1549 1550 1551 1552 1553 1554 1554 1554 1554 1555 1555 1556 1556 1556 1556 1556 1556 1555 1556 1556 1557 1557 1557 1558 1558 1558 1559 1559 1559 1560 1560
1506 1505 1508 1511 1513 1515 1516 1519 1522 1528 1531 1534 1537 1539 1542 1544 1546 1547 1549 1550 1551 1552 1553 1554 1554 1554 1554 1555 1556 1556 1557 1557 1557 1556 1555 1555 1556 1556 1556 1557 1557 1557 1557 1557 1558 1558 1559 1559 1559
1503 1503 1508 1510 1512 1515 1515 1520 1523 1528 1531 1533 1536 1539 1541 1544 1545 1547 1549 1550 1551 1552 1553 1554 1555 1555 1555 1555 1555 1557 1557 1557 1556 1556 1555 1555 1555 1555 1555 1556 1556 1556 1557 1557 1557 1557 1558 1558 1559
1502 1505 1507 1510 1510 1512 1512 1516 1522 1527 1529 1532 1535 1538 1540 1542 1544 1546 1547 1549 1550 1551 1552 1553 1554 1555 1555 1555 1556 1556 1556 1556 1556 1555 1555 1554 1554 1554 1555 1555 1555 1555 1556 1556 1556 1556 1556 1557 1557
1504 1502 1505 1508 1508 1511 1511 1513 1519 1524 1527 1529 1533 1535 1538 1540 1542 1544 1546 1548 1549 1550 1551 1552 1553 1554 1555 1555 1555 1556 1556 1556 1555 1555 1554 1554 1554 1554 1554 1554 1554 1554 1555 1554 1554 1554 1554 1555 1555
1497 1500 1504 1506 1507 1509 1511 1513 1515 1521 1524 1526 1529 1532 1535 1537 1540 1543 1544 1546 1547 1548 1549 1551 1552 1553 1554 1555 1555 1556 1556 1556 1555 1555 1554 1554 1554 1553 1553 1554 1553 1553 1554 1553 1553 1553 1553 1553 1553
1498 1502 1504 1506 1508 1508 1510 1511 1511 1517 1520 1523 1526 1529 1532 1535 1538 1540 1542 1544 1545 1546 1548 1549 1551 1552 1553 1554 1554 1554 1555 1555 1555 1554 1554 1554 1554 1553 1554 1553 1553 1553 1553 1552 1552 1552 1552 1552 1552
1499 1500 1502 1506 1508 1507 1509 1510 1510 1513 1517 1521 1523 1526 1528 1531 1534 1537 1539 1541 1543 1545 1546 1548 1549 1551 1552 1553 1554 1554 1554 1554 1555 1554 1554 1554 1553 1553 1553 1552 1553 1552 1552 1552 1551 1551 1551 1551 1551
1501 1496 1500 1505 1508 1507 1509 1513 1505 1506 1512 1515 1518 1521 1524 1527 1531 1534 1536 1539 1541 1543 1544 1546 1548 1549 1550 1551 1553 1553 1554 1555 1555 1555 1554 1554 1553 1553 1553 1552 1552 1551 1552 1551 1550 1550 1549 1549 1549
1496 1497 1499 1502 1504 1506 1506 1510 1502 1503 1507 1508 1512 1516 1520 1523 1527 1530 1533 1536 1539 1541 1543 1544 1546 1547 1549 1550 1551 1552 1553 1554 1554 1554 1554 1553 1553 1552 1552 1552 1551 1551 1550 1550 1549 1548 1548 1548 1548
1498 1500 1502 1502 1502 1516 1507 1511 1506 1497 1500 1501 1506 1511 1516 1520 1523 1527 1531 1534 1536 1539 1541 1543 1544 1546 1547 1549 1550 1551 1552 1552 1553 1553 1553 1554 1553 1553 1552 1551 1550 1550 1549 1548 1547 1547 1546 1546 1545
1497 1503 1515 1519 1518 1514 1502 1509 1502 1493 1495 1499 1503 1508 1512 1516 1520 1524 1528 1531 1533 1536 1538 1541 1542 1544 1546 1547 1549 1550 1550 1551 1552 1553 1553 1553 1553 1553 1551 1551 1549 1549 1548 1547 1546 1546 1545 1544 1543
1493 1495 1512 1523 1520 1508 1507 1507 1494 1492 1496 1499 1502 1505 1509 1513 1517 1521 1524 1528 1531 1534 1536 1539 1540 1542 1544 1546 1547 1548 1549 1551 1552 1551 1552 1552 1552 1552 1550 1549 1548 1548 1547 1546 1545 1545 1544 1543 1542
1492 1491 1486 1498 1504 1509 1501 1497 1490 1491 1495 1498 1500 1503 1506 1510 1514 1518 1522 1525 1528 1531 1534 1537 1539 1541 1543 1545 1546 1547 1548 1549 1550 1550 1551 1551 1550 1551 1549 1549 1548 1547 1546 1545 1544 1544 1543 1542 1542
1485 1485 1493 1499 1515 1518 1507 1501 1494 1491 1492 1495 1498 1501 1504 1508 1512 1515 1519 1522 1526 1529 1531 1535 1537 1539 1541 1543 1545 1546 1547 1548 1549 1549 1549 1549 1549 1549 1549 1548 1547 1546 1545 1544 1544 1543 1542 1541 1541
1492 1492 1492 1494 1496 1510 1513 1501 1481 1486 1489 1492 1495 1499 1503 1506 1509 1513 1516 1520 1523 1526 1529 1532 1535 1537 1540 1542 1543 1545 1546 1547 1548 1548 1548 1548 1548 1548 1548 1547 1547 1546 1545 1544 1543 1543 1542 1541 1541
1483 1485 1490 1501 1504 1500 1501 1495 1480 1484 1487 1491 1494 1498 1501 1504 1507 1511 1514 1518 1521 1524 1527 1530 1533 1536 1538 1540 1542 1543 1544 1546 1547 1547 1547 1548 1548 1548 1547 1547 1546 1546 1545 1544 1543 1543 1542 1541 1540